Regional Weather Roundup
Issued by NWS Albany, NY

Home | Current Version | Previous Version | Text Only | Print | Product List | Glossary On
Versions: 1 2 3 4 5 6 7 8 9 10 11 12 13 14 15 16 17 18 19 20 21 22 23 24 25 26 27 28 29 30 31 32 33 34 35 36 37 38 39 40 41 42 43 44 45 46 47 48 49 50
000
ASUS41 KALY 211210
RWRALY

NEW YORK STATE HOURLY WEATHER ROUNDUP
NATIONAL WEATHER SERVICE ALBANY NY
800 AM EDT SUN SEP 21 2014

NOTE: "FAIR" INDICATES FEW OR NO CLOUDS BELOW 12,000 FEET WITH NO
SIGNIFICANT WEATHER AND/OR NO OBSTRUCTIONS TO VISIBILITY.

NYZ032-033-038>043-046>054-057>066-NYZ062>081-211300-
EAST


CITY           SKY/WX    TMP DP  RH WIND       PRES   REMARKS
ALBANY         CLOUDY    65  60  84 S14G28    29.88S
GLENS FALLS    CLOUDY    61  59  93 SW7       29.89R
POUGHKEEPSIE   CLOUDY    65  62  90 CALM      29.91F FOG
NEWBURGH       CLOUDY    63  63 100 CALM      29.93F FOG
MONTGOMERY     CLOUDY    63  60  90 CALM      29.92F
WHITE PLAINS   FOG       65  64  97 CALM      29.92R VSB 1/4
ISLIP          PTSUNNY   70  68  93 SE6       29.90F
NEW YORK CITY  CLOUDY    68  66  93 CALM      29.90S
CENTRAL PARK   CLOUDY    68  66  93 CALM      29.94S FOG
$$

NYZ005>009-017-018-044>046-055-056-211300-
CENTRAL


CITY           SKY/WX    TMP DP  RH WIND       PRES   REMARKS
FULTON         PTSUNNY   67  58  72 S9        29.74F
SYRACUSE       PTSUNNY   69  58  67 S14G24    29.75F
ROME           MOSUNNY   63  57  81 SE13      29.81F
ELMIRA         MOSUNNY   64  58  80 VRB3      29.82S
BINGHAMTON     MOSUNNY   61  56  83 S12       29.87F
MONTICELLO     CLOUDY    57  55  94 CALM      29.94F
$$

NYZ026>034-041>043-211300-
NORTH


CITY           SKY/WX    TMP DP  RH WIND       PRES   REMARKS
WATERTOWN      CLOUDY    69  56  62 S9G21     29.71F
FORT DRUM      NOT AVBL
MASSENA        PTSUNNY   69  59  70 SW14      29.70S
SARANAC LAKE   MOSUNNY   61  55  81 SW12G22   29.79S
PLATTSBURGH    SUNNY     64  55  72 S13G21    29.77F
$$

NYZ001>004-010>016-019>021-211300-
WEST


CITY           SKY/WX    TMP DP  RH WIND       PRES   REMARKS
NIAGARA FALLS  LGT RAIN  66  63  90 S10       29.63F
BUFFALO        LGT RAIN  67  63  87 S10       29.65F
DUNKIRK        LGT RAIN  67  64  90 S9G22     29.65F
JAMESTOWN      CLOUDY    64  61  88 S8        29.73F
WELLSVILLE     CLOUDY    64  59  83 S12G20    29.81F
ROCHESTER      PTSUNNY   68  60  75 S9        29.70F
PENN YAN       SUNNY     65  57  75 SW12      29.77F
$$

             KEY
       WCI = WIND CHILL INDEX
       VSB = VISIBILITY
       HX  = HEAT INDEX
$$


USA.gov is the U.S. government's official web portal to all federal, state and local government web resources and services.